Location: Asheville, NC
(35.6000°N, 82.5500°W)
Time: 09:24:26
(UTC-05:00)

XW-2C - Pass Details

Date: 04 January 2018
Orbit: 510 x 531 km, 97.5° (Epoch: 21 January)

Event Time Altitude Azimuth Distance (km) Brightness Sun altitude
Rises 06:34:48 0° 11° (N) 2,659 ? -13.1°
Reaches altitude 10° 06:36:55 10° 11° (N) 1,763 ? -12.6°
Maximum altitude 06:40:43 87° 287° (WNW) 525 ? -11.9°
Drops below altitude 10° 06:44:28 10° 194° (SSW) 1,737 ? -11.2°
Sets 06:46:33 0° 194° (SSW) 2,616 ? -10.8°
